Temperature
-2 -1 -1 -1 -1 -1 -1 -1 -1 -1 -1 -2 -2 -2 -2 -2 -1 -1 -1 -0 0 1 1 2 2 2 3 3 3 4 4 4 4 5 5 5 5 5 5 5 5 5 5 5
-2 -1 -1 -2 -2 -2 -2 -2 -2 -2 -2 -2 -3 -2 -2 -2 -2 -2 -2 -1 -1 -0 0 1 1 2 2 2 3 3 3 4 4 4 4 4 4 4 4 4 4 5 5 5
-3 -2 -2 -3 -4 -3 -3 -4 -3 -3 -3 -4 -4 -3 -3 -3 -3 -3 -3 -2 -2 -1 -1 -0 0 1 1 2 2 2 3 3 3 3 3 3 3 3 4 4 4 4 4 4
-4 -4 -5 -4 -4 -4 -4 -4 -5 -5 -5 -4 -4 -4 -4 -4 -4 -4 -4 -3 -3 -2 -1 -1 -0 0 1 1 1 2 2 2 2 3 3 3 3 3 3 3 3 3 3 3
-5 -5 -5 -4 -4 -5 -5 -5 -5 -5 -5 -5 -5 -4 -4 -4 -4 -5 -4 -4 -3 -3 -2 -2 -1 -0 -0 0 1 1 1 2 2 2 2 2 2 2 2 2 2 3 3 3
-6 -5 -5 -6 -5 -5 -5 -5 -6 -6 -6 -6 -6 -6 -5 -5 -5 -5 -5 -4 -4 -3 -2 -2 -1 -1 -1 -0 0 1 1 1 1 1 2 2 2 2 2 2 2 2 2 2
-6 -6 -6 -6 -6 -5 -6 -6 -6 -6 -6 -6 -6 -6 -6 -6 -6 -6 -5 -5 -4 -4 -3 -3 -2 -2 -2 -1 -1 -0 0 0 1 1 1 1 1 1 1 1 1 1 1 1
-7 -7 -7 -6 -6 -7 -7 -7 -7 -7 -7 -7 -7 -7 -7 -7 -6 -6 -6 -5 -5 -5 -4 -3 -3 -3 -2 -2 -1 -1 -1 -0 0 0 0 0 0 0 1 1 1 1 1 1
-7 -7 -7 -6 -7 -7 -7 -7 -7 -7 -7 -7 -7 -7 -7 -7 -7 -7 -6 -6 -5 -5 -5 -4 -4 -3 -3 -3 -2 -2 -1 -1 -1 -0 -0 -0 -0 -0 -0 0 0 -0 -0 -0
-7 -7 -7 -7 -7 -8 -8 -8 -8 -8 -8 -8 -8 -8 -8 -7 -7 -7 -7 -6 -6 -5 -5 -4 -4 -4 -3 -3 -3 -2 -2 -2 -1 -1 -1 -1 -1 -1 -1 -1 -1 -1 -1 -1
-8 -8 -8 -8 -8 -8 -9 -9 -9 -9 -9 -9 -9 -8 -8 -8 -8 -7 -7 -7 -6 -6 -6 -5 -5 -4 -4 -4 -3 -3 -3 -2 -2 -2 -2 -2 -2 -2 -2 -1 -1 -1 -1 -1
-9 -8 -9 -8 -9 -9 -9 -9 -9 -9 -9 -9 -9 -9 -8 -8 -8 -8 -7 -7 -7 -6 -6 -6 -5 -5 -5 -4 -4 -4 -3 -3 -3 -3 -3 -3 -3 -2 -2 -2 -2 -2 -2 -2
-8 -8 -9 -9 -9 -9 -9 -9 -9 -9 -9 -9 -9 -9 -9 -9 -8 -8 -8 -7 -7 -7 -7 -6 -6 -6 -5 -5 -5 -4 -4 -4 -4 -4 -4 -4 -3 -3 -3 -3 -3 -3 -2 -2
-9 -9 -9 -9 -10 -10 -10 -10 -10 -9 -9 -10 -9 -9 -9 -9 -9 -8 -8 -8 -8 -7 -7 -7 -7 -6 -6 -6 -5 -5 -5 -5 -5 -4 -4 -4 -4 -4 -4 -3 -3 -3 -3 -3
-9 -9 -9 -10 -10 -10 -10 -10 -10 -10 -10 -10 -10 -10 -9 -9 -9 -9 -9 -8 -8 -8 -8 -7 -7 -7 -7 -6 -6 -6 -6 -5 -5 -5 -5 -5 -5 -5 -4 -4 -4 -4 -4 -4
-9 -9 -10 -10 -10 -10 -10 -10 -10 -10 -10 -10 -10 -10 -10 -10 -10 -9 -9 -9 -8 -8 -8 -8 -7 -7 -7 -7 -7 -7 -6 -6 -6 -6 -6 -6 -5 -5 -5 -5 -5 -5 -5 -4
-10 -10 -10 -11 -11 -11 -11 -11 -11 -11 -11 -11 -11 -11 -10 -10 -10 -9 -9 -9 -9 -9 -9 -8 -8 -8 -8 -7 -7 -7 -7 -7 -6 -6 -6 -6 -6 -6 -6 -6 -5 -5 -5 -5
-10 -10 -11 -11 -11 -11 -11 -11 -11 -11 -11 -11 -11 -11 -11 -10 -10 -10 -10 -10 -9 -9 -9 -9 -9 -8 -8 -8 -8 -8 -7 -7 -7 -7 -7 -7 -7 -6 -6 -6 -6 -6 -6 -6
-10 -10 -11 -11 -11 -11 -12 -12 -12 -12 -12 -12 -11 -11 -11 -11 -11 -11 -10 -10 -10 -9 -9 -9 -9 -9 -9 -8 -8 -8 -8 -8 -8 -7 -7 -7 -7 -7 -7 -7 -7 -6 -6 -6
-10 -11 -11 -11 -11 -12 -12 -12 -12 -12 -12 -12 -12 -11 -11 -11 -11 -11 -11 -11 -11 -10 -10 -10 -10 -9 -9 -9 -9 -9 -8 -8 -8 -8 -8 -8 -8 -7 -7 -7 -7 -7 -7 -7
-11 -11 -11 -11 -12 -12 -12 -12 -12 -12 -12 -12 -12 -12 -12 -12 -11 -11 -11 -11 -11 -11 -10 -10 -10 -10 -10 -9 -9 -9 -9 -9 -8 -8 -8 -8 -8 -8 -8 -8 -7 -7 -7 -7
-11 -11 -12 -12 -12 -12 -12 -12 -12 -12 -12 -12 -12 -12 -12 -12 -12 -12 -12 -12 -11 -11 -11 -11 -10 -10 -10 -10 -10 -9 -9 -9 -9 -9 -9 -9 -9 -8 -8 -8 -8 -8 -8 -8
-12 -12 -12 -12 -12 -12 -12 -12 -12 -12 -12 -12 -12 -12 -12 -12 -12 -12 -12 -12 -11 -11 -11 -11 -11 -11 -10 -10 -10 -10 -10 -10 -9 -9 -9 -9 -9 -9 -9 -9 -9 -9 -8 -8
-12 -12 -12 -12 -12 -12 -12 -12 -12 -13 -13 -13 -13 -13 -13 -12 -12 -12 -12 -12 -12 -11 -11 -11 -11 -11 -11 -10 -10 -10 -10 -10 -10 -10 -10 -10 -10 -10 -9 -9 -9 -9 -9 -9
-12 -12 -12 -12 -12 -13 -13 -13 -13 -13 -13 -13 -13 -13 -13 -13 -13 -13 -12 -12 -12 -12 -11 -11 -11 -11 -11 -11 -11 -10 -10 -10 -10 -10 -10 -10 -10 -10 -10 -10 -9 -9 -9 -9
-12 -13 -13 -13 -13 -13 -13 -13 -13 -13 -13 -13 -13 -13 -13 -13 -13 -13 -12 -12 -12 -12 -12 -11 -11 -11 -11 -11 -11 -11 -11 -11 -11 -11 -10 -10 -10 -10 -10 -10 -10 -10 -9 -9
-13 -13 -13 -13 -13 -13 -14 -14 -14 -13 -13 -13 -13 -13 -13 -13 -13 -13 -13 -12 -12 -12 -12 -12 -12 -12 -12 -11 -11 -11 -11 -11 -11 -11 -11 -11 -10 -10 -10 -10 -10 -10 -10 -9
Wind_Speed
5 5 3 5 8 7 4 1 2 1 1 6 8 8 9 9 10 10 9 9 8 7 6 6 6 6 5 4 2 1 0 2 3 3 3 3 3 3 3 4 4 4 4 4
4 2 3 7 10 8 6 4 2 3 3 6 7 6 8 9 9 10 10 9 8 8 8 6 6 6 5 4 3 2 1 0 1 2 3 3 3 3 3 3 3 3 4 4
3 5 3 4 8 6 5 5 3 4 6 9 9 9 8 8 8 9 10 10 9 8 7 7 6 5 5 4 2 2 1 1 0 1 2 3 3 3 3 3 3 3 3 3
2 3 1 1 4 5 4 5 8 7 9 9 8 7 6 6 8 10 11 11 11 9 8 7 6 5 4 4 2 1 2 2 1 1 1 2 2 3 3 2 2 2 2 3
0 1 1 3 6 6 3 2 8 9 10 11 11 7 4 7 9 10 10 10 9 9 8 7 6 5 4 4 4 2 2 1 1 0 1 1 2 2 2 2 2 2 2 2
1 0 1 4 9 9 2 2 8 10 10 11 10 6 7 11 12 12 11 9 9 8 7 6 6 5 4 4 4 3 2 2 1 1 1 1 2 2 1 2 2 2 1 2
1 1 2 5 9 6 3 5 10 9 9 9 6 5 9 12 12 11 10 9 8 8 7 6 6 4 4 4 4 4 4 2 1 1 0 1 1 1 2 2 2 1 1 1
1 0 4 6 5 3 4 6 7 8 8 8 8 9 10 10 10 10 10 9 8 7 6 6 5 4 4 4 5 4 3 3 2 2 1 0 1 1 1 2 3 2 1 1
2 3 3 3 2 3 4 6 7 7 8 9 9 10 10 10 9 9 9 9 7 6 6 6 5 4 4 5 4 3 3 3 2 2 2 1 0 1 1 2 2 2 2 1
1 2 3 3 3 5 6 6 7 7 8 8 9 10 10 9 9 8 8 8 7 7 7 7 6 6 5 5 4 3 3 3 3 2 2 2 1 0 1 1 2 2 2 2
2 4 5 4 5 7 7 8 8 8 7 8 8 9 9 8 9 8 8 7 7 7 7 7 7 6 6 5 4 3 3 3 3 3 2 2 2 1 1 1 2 2 2 2
3 4 4 6 6 7 8 9 9 8 9 8 8 8 8 8 7 7 7 7 7 7 7 7 7 7 7 6 4 4 3 3 3 2 2 2 2 3 4 2 2 1 1 1
3 4 4 6 6 7 7 8 8 8 7 8 8 8 8 7 7 7 7 7 7 7 7 6 6 7 7 6 5 4 3 3 3 2 2 2 1 1 2 4 5 3 2 1
3 3 4 5 6 7 7 8 7 7 6 7 7 8 7 7 7 8 8 8 7 7 7 6 6 7 7 6 6 5 4 4 3 2 2 2 1 1 1 1 2 2 3 3
4 4 4 6 6 6 7 7 7 8 8 8 8 8 8 8 8 8 7 8 7 7 7 7 7 7 7 6 6 5 4 3 3 2 2 2 2 1 1 1 1 1 2 2
5 4 4 5 7 7 7 7 7 8 8 8 8 8 8 7 7 7 7 7 7 8 8 7 7 7 7 6 6 4 3 5 4 3 3 2 2 2 1 1 1 1 2 2
4 5 5 7 7 7 7 7 7 7 7 8 8 8 8 7 7 8 8 7 6 6 7 7 7 7 7 6 5 4 3 4 5 4 3 2 2 2 2 2 2 2 2 2
4 4 5 5 5 6 7 7 7 7 7 7 7 7 7 7 8 8 8 7 7 7 7 7 7 7 6 6 5 3 3 3 3 3 3 3 2 2 2 2 2 2 2 3
4 4 5 5 5 5 5 6 7 7 7 7 7 7 7 7 7 7 7 7 7 7 8 8 10 8 7 7 6 3 3 3 3 3 3 3 3 3 2 2 2 2 2 3
4 4 5 5 5 4 5 5 6 6 6 6 6 6 7 7 7 7 7 6 5 5 7 8 7 6 6 6 7 3 3 3 3 3 3 3 3 3 2 2 2 2 2 3
5 5 5 5 5 5 5 5 5 6 6 6 6 6 7 7 7 6 6 6 6 7 8 9 6 5 5 6 6 3 3 3 3 3 3 3 3 3 3 3 3 3 2 2
4 4 5 5 5 5 5 5 5 5 6 6 6 6 6 7 7 6 5 4 6 10 8 5 4 7 8 7 4 3 3 3 3 3 2 2 3 3 3 3 2 2 2 2
4 4 4 5 5 5 6 5 5 5 6 6 7 6 6 6 5 6 6 5 6 10 8 5 7 10 10 5 3 3 3 3 3 3 3 3 3 3 3 3 2 2 2 2
4 4 4 5 4 4 5 6 6 5 5 5 5 6 6 5 5 4 5 9 11 11 7 8 10 10 9 4 3 3 3 3 3 3 3 3 3 3 3 3 3 3 3 3
4 4 4 4 4 4 5 6 6 6 5 5 6 6 5 4 4 6 6 7 10 10 6 8 10 10 6 4 4 4 4 3 3 3 3 3 3 3 3 3 3 3 3 3
3 3 4 4 3 4 4 4 5 5 6 6 6 5 5 5 5 5 5 6 7 9 7 5 6 7 5 4 4 4 4 5 5 4 4 4 4 3 3 3 4 3 3 3
3 3 3 3 3 3 4 4 5 5 6 6 7 6 6 6 5 5 6 5 6 6 5 5 5 5 5 5 5 5 4 4 4 4 4 4 3 3 4 4 3 4 4 4
Wind_Direction
277 289 333 355 351 0 16 340 208 244 354 348 346 343 347 352 358 3 5 4 1 359 358 3 6 6 4 356 1 19 83 178 195 194 181 170 171 178 176 179 184 182 181 185
303 309 16 19 10 11 8 2 11 13 347 344 343 354 358 357 357 356 352 349 348 350 351 349 350 350 349 349 352 15 32 237 203 178 172 172 175 171 171 179 182 177 183 188
294 314 11 21 1 7 18 21 17 348 332 343 357 355 352 349 351 349 344 342 340 336 333 331 333 335 335 332 344 24 20 -0 16 171 171 174 168 163 174 182 179 185 197 198
299 8 47 260 7 0 8 35 28 9 350 346 337 331 346 1 358 349 344 340 334 331 332 329 331 335 337 337 348 33 40 19 10 47 160 161 157 166 173 172 177 188 200 207
329 296 293 330 349 344 320 337 13 358 347 344 339 340 0 7 356 343 334 329 326 327 324 325 332 335 343 345 353 17 26 8 341 325 159 168 172 177 170 166 174 189 196 198
49 340 303 308 319 319 291 289 356 350 339 340 348 346 325 341 339 337 335 335 334 331 330 334 335 336 348 344 349 346 338 324 320 280 174 181 193 184 172 169 181 179 192 204
7 237 276 315 325 357 56 303 325 333 333 335 332 298 304 319 324 328 331 333 334 332 335 335 333 337 345 341 334 328 329 330 339 328 224 191 179 180 172 168 160 163 191 222
1 353 285 332 4 20 297 309 324 327 329 327 318 315 320 324 326 329 331 333 334 335 336 336 337 343 344 333 330 340 349 355 353 350 355 69 134 164 164 162 158 168 182 220
208 215 278 332 349 332 335 327 328 327 325 325 324 323 324 326 327 327 330 332 336 338 338 341 343 346 337 333 341 354 5 0 353 354 5 22 121 163 162 159 164 180 185 205
310 293 322 332 347 347 340 329 325 324 324 328 326 325 326 327 331 334 334 337 343 346 346 345 350 354 350 345 349 1 4 356 355 8 16 19 16 4 193 196 193 198 203 212
293 306 326 328 344 338 336 335 332 331 330 329 327 328 328 329 331 333 336 341 349 350 349 347 351 356 355 352 359 5 3 360 0 5 8 9 6 347 309 277 236 214 213 209
263 285 289 294 315 330 331 330 329 330 331 331 330 324 327 328 330 333 338 343 347 350 351 351 354 356 355 352 359 6 6 5 3 359 360 7 19 14 8 353 354 333 288 248
256 293 284 289 313 329 326 325 327 328 328 328 331 330 331 331 333 339 342 345 345 346 348 351 356 358 355 355 360 7 5 356 355 356 355 358 5 25 12 16 29 32 23 13
307 325 310 316 315 323 325 325 327 329 335 335 333 334 334 335 337 343 344 343 343 346 349 351 354 354 352 354 360 3 4 358 355 348 341 342 339 337 331 352 1 2 10 22
318 313 289 302 317 327 331 334 339 340 340 341 339 339 339 338 336 335 337 341 347 353 353 353 356 352 349 353 356 357 357 356 355 350 346 345 343 346 344 346 346 343 356 4
312 316 317 326 329 332 338 342 341 336 337 338 339 338 336 332 331 337 343 350 355 353 350 351 351 345 345 349 353 355 357 355 354 353 353 355 355 358 354 350 345 347 350 340
325 326 327 328 327 327 331 331 331 331 334 336 336 335 337 339 343 345 345 347 348 345 345 349 345 343 348 352 351 350 349 352 355 356 357 352 348 344 342 343 342 344 332 324
291 293 301 305 313 320 327 333 335 335 334 331 333 338 341 343 340 336 336 340 347 351 352 349 345 348 353 353 352 349 350 349 350 350 350 349 349 348 347 345 341 337 334 338
318 315 318 322 323 323 325 328 330 331 331 335 339 339 337 336 334 335 339 346 348 346 343 341 346 354 352 349 350 350 351 351 352 352 352 353 356 358 356 349 341 334 334 340
330 332 332 332 334 333 326 327 328 330 331 332 334 336 338 337 337 338 340 342 338 327 326 335 343 346 344 343 349 357 355 352 351 349 349 350 349 348 345 340 337 336 338 338
325 328 330 331 329 329 325 325 328 328 328 331 332 330 328 328 332 336 337 337 335 333 335 339 344 338 339 343 353 359 351 346 347 345 343 340 337 337 337 336 335 332 333 336
314 318 320 323 324 325 325 327 327 326 328 330 329 327 328 331 333 333 330 320 324 332 338 334 333 336 343 348 356 353 345 341 340 340 338 333 328 327 326 327 327 327 330 330
307 311 315 316 317 315 320 326 326 325 325 327 328 327 325 322 323 326 327 329 328 332 337 331 334 339 344 353 352 345 340 337 334 331 329 326 322 318 316 317 319 320 319 319
309 313 313 314 318 323 327 326 324 322 316 313 318 319 320 322 321 315 307 322 332 332 333 331 337 341 347 357 346 337 332 328 325 321 319 319 317 315 310 307 308 309 310 314
310 309 312 320 325 322 318 319 321 321 321 322 322 323 322 316 312 316 318 321 329 334 334 336 340 344 350 342 336 329 323 318 315 315 312 310 309 306 304 303 302 301 303 306
307 308 304 301 300 306 314 320 323 323 325 325 324 324 323 320 315 315 317 322 327 335 338 332 333 337 336 332 328 324 320 319 321 319 313 308 303 301 300 301 300 299 296 295
312 312 313 317 319 320 317 316 317 320 321 318 317 320 323 325 324 325 325 326 328 330 329 328 330 329 326 324 322 320 317 315 313 311 308 303 299 297 295 294 293 293 291 290
Height
1485 1482 1481 1480 1477 1475 1474 1473 1474 1473 1472 1473 1472 1470 1467 1463 1460 1458 1455 1453 1452 1450 1449 1448 1448 1447 1447 1447 1448 1449 1450 1451 1452 1454 1456 1458 1460 1462 1464 1466 1468 1470 1472 1474
1485 1480 1480 1480 1481 1479 1478 1477 1476 1474 1476 1475 1472 1470 1467 1465 1463 1460 1457 1455 1453 1451 1449 1448 1447 1447 1446 1446 1447 1447 1448 1449 1450 1451 1453 1455 1456 1459 1460 1462 1464 1466 1468 1469
1489 1483 1481 1487 1488 1486 1485 1483 1482 1481 1482 1477 1473 1470 1469 1466 1464 1462 1459 1456 1453 1451 1449 1448 1447 1446 1445 1445 1445 1445 1446 1447 1448 1449 1450 1452 1453 1455 1457 1459 1461 1462 1464 1465
1492 1490 1497 1495 1490 1489 1487 1486 1486 1485 1483 1479 1476 1472 1469 1467 1464 1461 1459 1456 1453 1450 1448 1447 1445 1444 1444 1443 1443 1443 1444 1445 1446 1447 1448 1449 1450 1452 1454 1455 1457 1458 1460 1461
1495 1497 1495 1494 1491 1491 1490 1488 1488 1486 1482 1479 1475 1469 1466 1466 1464 1462 1459 1456 1453 1450 1448 1445 1444 1442 1442 1441 1441 1441 1441 1442 1443 1444 1445 1446 1448 1449 1451 1452 1453 1455 1456 1458
1499 1498 1500 1500 1493 1489 1489 1489 1488 1487 1484 1480 1476 1473 1469 1466 1463 1460 1457 1454 1451 1448 1446 1443 1441 1441 1440 1439 1438 1438 1439 1440 1441 1442 1443 1444 1445 1446 1448 1449 1450 1451 1452 1454
1503 1503 1502 1499 1493 1489 1496 1496 1490 1487 1484 1481 1478 1477 1471 1466 1462 1459 1455 1452 1449 1446 1443 1441 1440 1439 1438 1437 1437 1437 1437 1438 1439 1440 1440 1441 1442 1443 1444 1445 1446 1448 1449 1450
1506 1507 1507 1498 1495 1497 1498 1493 1490 1486 1483 1480 1476 1472 1468 1464 1460 1457 1453 1450 1447 1444 1441 1440 1438 1437 1436 1435 1435 1435 1436 1436 1436 1437 1438 1439 1439 1440 1441 1442 1443 1444 1445 1446
1506 1507 1502 1499 1498 1497 1495 1492 1489 1486 1482 1479 1474 1470 1466 1462 1459 1455 1452 1449 1446 1443 1440 1438 1437 1436 1435 1434 1434 1433 1434 1434 1434 1435 1435 1436 1437 1437 1438 1439 1439 1440 1441 1442
1503 1501 1501 1499 1498 1496 1494 1491 1488 1485 1481 1477 1473 1468 1464 1460 1457 1453 1450 1447 1444 1442 1439 1437 1436 1435 1434 1433 1432 1432 1432 1432 1432 1432 1433 1433 1434 1435 1435 1436 1436 1437 1438 1438
1504 1502 1499 1497 1497 1495 1492 1489 1486 1482 1479 1476 1472 1467 1463 1459 1456 1453 1450 1447 1444 1441 1439 1437 1435 1433 1432 1432 1431 1430 1430 1430 1430 1431 1431 1431 1432 1433 1433 1434 1434 1435 1435 1436
1505 1502 1501 1498 1495 1493 1490 1486 1483 1480 1476 1473 1470 1466 1462 1459 1456 1452 1449 1446 1444 1441 1439 1436 1434 1433 1431 1431 1430 1429 1428 1428 1429 1429 1429 1429 1430 1430 1431 1432 1432 1432 1433 1433
1502 1500 1498 1496 1493 1491 1488 1485 1481 1478 1475 1471 1468 1465 1461 1458 1455 1452 1449 1446 1443 1441 1439 1436 1434 1432 1431 1430 1429 1428 1427 1427 1427 1427 1427 1428 1428 1428 1428 1429 1429 1430 1430 1430
1500 1498 1495 1493 1491 1489 1486 1482 1479 1476 1472 1469 1466 1463 1460 1457 1454 1451 1448 1446 1444 1441 1439 1437 1434 1433 1431 1430 1428 1427 1426 1426 1426 1426 1426 1426 1426 1426 1426 1426 1426 1426 1427 1427
1498 1497 1495 1492 1489 1487 1483 1480 1476 1473 1470 1467 1464 1461 1459 1456 1453 1450 1448 1446 1443 1441 1439 1436 1434 1432 1431 1429 1428 1426 1426 1425 1425 1424 1424 1424 1424 1424 1424 1424 1424 1424 1424 1424
1496 1494 1492 1490 1487 1484 1481 1477 1474 1471 1468 1465 1462 1460 1458 1455 1452 1450 1447 1445 1442 1440 1438 1436 1434 1433 1431 1429 1428 1426 1425 1425 1424 1423 1423 1423 1423 1423 1422 1422 1422 1422 1422 1422
1494 1491 1489 1487 1485 1482 1479 1476 1473 1470 1467 1464 1461 1459 1456 1454 1451 1449 1446 1444 1442 1440 1438 1436 1434 1432 1431 1429 1428 1426 1425 1424 1423 1422 1422 1421 1421 1421 1421 1420 1420 1420 1420 1420
1492 1490 1488 1486 1483 1480 1478 1475 1472 1469 1466 1463 1460 1458 1455 1453 1450 1448 1445 1443 1441 1439 1437 1436 1434 1432 1430 1428 1427 1426 1424 1423 1422 1422 1421 1421 1420 1420 1419 1419 1419 1418 1418 1418
1490 1488 1486 1484 1482 1479 1476 1473 1470 1468 1465 1462 1459 1456 1454 1452 1449 1447 1444 1442 1440 1438 1436 1435 1433 1431 1429 1428 1426 1425 1424 1423 1422 1421 1420 1420 1419 1419 1418 1418 1417 1417 1417 1416
1488 1486 1484 1482 1479 1477 1474 1472 1469 1466 1463 1461 1458 1455 1453 1450 1448 1446 1444 1442 1440 1438 1436 1434 1432 1430 1428 1427 1426 1424 1423 1422 1421 1420 1419 1418 1418 1417 1417 1416 1416 1415 1415 1414
1486 1484 1482 1480 1477 1475 1473 1470 1467 1465 1462 1460 1457 1454 1452 1450 1447 1445 1442 1440 1439 1437 1435 1433 1431 1429 1427 1426 1425 1423 1422 1421 1420 1419 1418 1417 1416 1415 1415 1414 1413 1413 1412 1412
1484 1482 1480 1478 1475 1473 1471 1469 1466 1463 1461 1459 1456 1454 1451 1449 1446 1444 1442 1440 1438 1436 1434 1432 1430 1428 1427 1425 1423 1422 1421 1420 1418 1417 1416 1415 1414 1413 1413 1412 1411 1411 1410 1410
1482 1480 1478 1476 1473 1471 1469 1467 1464 1462 1460 1457 1455 1452 1450 1448 1445 1443 1440 1439 1437 1435 1432 1430 1428 1427 1425 1424 1422 1421 1419 1418 1417 1416 1415 1414 1413 1412 1411 1410 1409 1409 1408 1407
1480 1478 1476 1474 1471 1469 1467 1465 1463 1461 1458 1456 1453 1451 1449 1446 1444 1442 1440 1438 1435 1433 1431 1429 1427 1426 1424 1422 1421 1419 1418 1416 1415 1414 1413 1412 1411 1410 1409 1408 1408 1407 1406 1405
1478 1476 1473 1471 1469 1467 1465 1463 1461 1459 1456 1454 1452 1450 1447 1445 1443 1440 1438 1436 1434 1432 1429 1428 1426 1424 1422 1421 1419 1417 1416 1415 1414 1412 1411 1410 1409 1408 1408 1407 1406 1405 1404 1403
1475 1473 1471 1469 1467 1465 1463 1461 1459 1457 1454 1452 1450 1448 1446 1444 1441 1439 1437 1434 1432 1430 1428 1426 1424 1423 1421 1419 1417 1416 1414 1413 1412 1411 1410 1408 1407 1406 1405 1405 1404 1403 1402 1401
1473 1471 1469 1467 1465 1463 1462 1459 1457 1455 1453 1450 1448 1446 1444 1442 1439 1437 1435 1433 1430 1428 1426 1424 1423 1421 1419 1418 1416 1414 1413 1411 1410 1409 1407 1406 1405 1404 1403 1402 1401 1400 1399 1398